METLOCID,DATE_TIME,AVG_PAR,STDDEV_PAR,MIN_PAR,MAX_PAR,N_PAR,AVG_SWRADIN,STDDEV_SWRADIN,MIN_SWRADIN,MAX_SWRADIN,N_SWRADIN,AVG_SWRADOUT,STDDEV_SWRADOUT,MIN_SWRADOUT,MAX_SWRADOUT,N_SWRADOUT,N_COMMENTS
MISM,1/28/12,661.0358974,304.8055752,176.4,991.5,39,323.8153846,152.9171027,83,491.4,39,62.21794872,30.06999617,15.7,95.3,39,39
MISM,1/29/12,540.575,361.0999448,73.8,1188.1,96,264.0270833,179.2357404,27.8,583.1,96,51.46979167,36.35851922,5.3,120.7,96,96
MISM,1/30/12,583.7729167,410.6705665,79.5,1237.1,96,283.7791667,209.7786146,20.8,622.6,96,59.46770833,44.40350032,4,125.4,96,96
MISM,1/31/12,371.23125,201.4834653,74.5,820.1,96,174.1572917,95.40504758,32.9,384.6,96,32.84270833,18.12758726,6.3,75,96,96
MISM,2/1/12,591.9333333,383.698314,76.7,1131.3,96,291.6385417,193.2573737,20.7,550.5,96,60.08958333,41.31264743,3.8,115.3,96,96
MISM,2/2/12,285.5625,141.5248487,60.5,571.3,96,132.85625,69.42555394,26.1,294.8,96,26.2125,14.25820724,5.1,63.5,96,96
MISM,2/3/12,283.1395833,232.4183141,43.1,889.4,96,133.5166667,113.7929909,18.6,439.4,96,25.40625,21.99408443,3.5,86.5,96,96
MISM,2/4/12,278.7833333,237.9019337,32,854.8,96,128.5072917,118.8409811,13.1,420.4,96,27.80625,27.58646049,2.6,97.4,96,96
MISM,2/5/12,271.184375,211.661884,22,793.2,96,122.6104167,97.44897016,8.5,372.2,96,23.98333333,19.24945203,1.7,75.4,96,96
MISM,2/6/12,407.9729167,324.1874424,66.3,1387.4,96,193.7229167,162.9431677,20,703,96,39.00208333,33.17235367,3.8,145,96,96
MISM,2/7/12,408.8822917,339.0294022,46.4,1111.4,96,199.5427083,166.3329348,20.6,544.6,96,39.03020833,34.49839392,3.9,115.6,96,96
MISM,2/8/12,520.6739583,361.8912358,53,1031.7,96,257.1895833,181.4883691,14.7,502.3,96,53.61354167,39.5098805,3,108.1,96,96
MISM,2/9/12,512.925,360.5938275,50,1024.8,96,252.3822917,179.6849822,13.7,495.3,96,52.61770833,39.11649805,2.8,106.5,96,96
MISM,2/10/12,499.9260417,356.0946489,46.9,1009.2,96,245.81875,177.1058906,13.2,488.6,96,51.28854167,38.61225568,2.6,105,96,96
MISM,2/11/12,485.8458333,359.9886109,44.8,1086.9,96,237.5635417,180.5240034,12.8,541,96,49.82395833,39.17397295,2.6,110.9,96,96
MISM,2/12/12,215.3677083,151.2989223,40.9,510.3,96,94.89270833,68.86383551,13.2,230.2,96,19.878125,13.73561796,2.6,47.2,96,96
MISM,2/13/12,284.7510417,214.0076359,30.6,612.4,96,128.0364583,97.39354039,12.1,276.2,96,47.25520833,40.97262724,3.5,131.1,96,96
MISM,2/14/12,237.51875,169.7473846,24.5,643.9,96,104.271875,76.31690122,7,327.1,96,49.13125,39.2087351,1.6,161.1,96,96
MISM,2/15/12,428.765625,366.7409649,21.7,985.4,96,207.3614583,181.3242855,9.6,485.3,96,63.45729167,55.41296589,3.9,156.4,96,96
MISM,2/16/12,367.6177083,328.8252798,15.1,1097.6,96,168.6395833,158.9400453,5.6,537.1,96,34.18020833,32.90367639,1.2,110.9,96,96
MISM,2/17/12,423.79375,343.6173143,17.4,948.6,96,205.565625,168.7602858,5.3,456,96,42.034375,35.82043177,1.1,97.6,96,96
MISM,2/18/12,354.059375,359.949179,16.5,1137.5,96,167.8291667,179.2502114,5,588.8,96,34.16458333,37.11043541,0.9,113.8,96,96
MISM,2/19/12,140.4,150.4799263,4.1,564.3,96,56.62708333,61.90128216,1.3,242.8,96,31.99791667,41.99416997,0.2,162.4,96,96
MISM,2/20/12,253.1885417,227.3783047,11.2,941.1,96,113.40625,105.1459045,3.3,448.7,96,27.08541667,25.5992022,1.4,100.5,96,96
MISM,2/21/12,353.8604167,294.6271254,13.2,870.4,96,170.5479167,142.7529002,6.6,425.3,96,35.47395833,31.02633939,1.2,89.4,96,96
MISM,2/22/12,374.6770833,317.7144005,10.2,850,96,184.8510417,158.3941147,3.7,412.6,96,38.93645833,34.59906333,0.8,92.6,96,96
MISM,2/23/12,351.0458333,309.7520801,8.2,827.2,96,173.2458333,154.2477897,3,401.2,96,36.246875,33.86774573,0.6,92.7,96,96
MISM,2/24/12,286.653125,279.5253631,6.1,862,96,133.1125,136.6021956,2.6,421.6,96,29.55104167,30.82772503,0.6,92.6,96,96
MISM,2/25/12,335.7052083,319.1652802,4.7,816,96,160.875,155.3097333,2,391.7,96,35.67916667,34.58335138,0.4,91.5,96,96
MISM,2/26/12,139.021875,126.3872997,2,364.4,96,59.425,55.22835465,1,159.6,96,12.27083333,10.80088609,0.2,30.7,96,96
MISM,2/27/12,185.5625,213.3932087,0,1045.3,96,84.128125,105.9652065,0.3,544.3,96,17.29479167,21.9801986,0,113,96,96
MISM,2/28/12,282.5979167,277.6492126,1.1,788.4,96,133.3947917,133.2570001,1,379.7,96,29.653125,30.2141025,0.2,83.5,96,96
MISM,2/29/12,260.003125,258.77631,1,774,96,120.9052083,123.9447129,0.4,396.1,96,24.990625,26.72976688,0.1,89.1,96,96
MISM,3/1/12,241.7072917,250.0752738,0.5,853.9,96,110.040625,119.8606196,0.3,446.6,96,24.96145833,27.42374449,0.1,88,96,96
MISM,3/2/12,297.053125,303.3148862,0,852.8,96,145.6135417,151.5565433,0.2,449.8,96,32.75625,33.62689967,0,97.4,96,96
MISM,3/3/12,162.4864583,176.4330615,0.2,878.7,96,69.98645833,83.01995654,0,447.2,96,13.78125,16.94874821,0,98.4,96,96
MISM,3/4/12,242.4083333,271.5373153,0,831.6,96,114.36875,132.6700262,0,404.4,96,24.34895833,29.03586166,0,91.4,96,96
MISM,3/5/12,170.5333333,191.0024997,0,654.6,96,78.66041667,89.70275297,0,314.1,96,15.3875,17.80328917,0,64.8,96,96
MISM,3/6/12,220.2145833,235.6661452,0,681.9,96,105.8520833,118.0201909,0,342.3,96,21.85416667,24.65294652,0,74.4,96,96
MISM,3/7/12,232.9270833,253.2959586,0,655.5,96,110.6927083,123.1107693,0,309.2,96,25.09895833,27.73803201,0,72.6,96,96
MISM,3/8/12,172.3791667,197.8132904,0,624.5,96,77.35416667,90.82005333,0,295.8,96,15.81041667,19.32822032,0,65.3,96,96
MISM,3/9/12,216.1927083,239.4133243,0,618.1,96,102.6354167,115.3363529,0,290,96,23.08541667,26.02472096,0,67.7,96,96
MISM,3/10/12,195.634375,223.2590206,0,637.4,96,93.09270833,107.8399391,0,310.8,96,20.72708333,23.76658193,0,72.2,96,96
MISM,3/11/12,96.50520833,101.6143539,0,308.7,96,41.25,44.69820908,0,138.2,96,7.867708333,8.52350922,0,26.6,96,96
MISM,3/12/12,118.21875,137.3625386,0,511.6,96,53.73854167,68.53450667,0,279,96,9.942708333,12.38674797,0,49.9,96,96
MISM,3/13/12,110.5635417,124.0844934,0,394.7,96,51.22083333,58.24477554,0,191.8,96,9.96875,11.32816065,0,37.7,96,96
MISM,3/14/12,105.1583333,125.553833,0,406.7,96,48.775,58.96932833,0,195.8,96,9.49375,11.56781208,0,39.3,96,96
MISM,3/15/12,131.0041667,165.9122888,0,509.9,96,62.578125,83.3091531,0,272.9,96,12.29895833,16.82482811,0,55.2,96,96
MISM,3/16/12,50.96979167,62.27305765,0,181.7,96,20.953125,26.27126088,0,77.1,96,4.607291667,5.757726978,0,16.9,96,96
MISM,3/17/12,62.23125,76.24653133,0,228.6,96,23.87604167,29.94586957,0,98.4,96,32.853125,41.78731349,0,135.7,96,96
MISM,3/18/12,122.9041667,169.8937853,0,461.4,96,56.39895833,84.72119911,0,225,96,34.33854167,53.02533728,0,152.7,96,96
MISM,3/19/12,102.31875,128.9926855,0,463.6,96,47.09375,61.66620983,0,231,96,28.09791667,37.23613406,0,143.7,96,96
MISM,3/20/12,108.26875,154.225264,0,428.6,96,49.10208333,75.70730338,0,205.7,96,32.15104167,50.76771041,0,147.2,96,96
MISM,3/21/12,115.9270833,155.3952377,0,468.6,96,55.921875,76.95290043,0,232.1,96,33.203125,46.52864981,0,148.4,96,96
MISM,3/22/12,98.46770833,143.8928435,0,408.7,96,45.05416667,73.00166533,0,201.9,96,25.39583333,42.36081833,0,126.5,96,96
MISM,3/23/12,76.34583333,98.336689,0,326.7,96,35.24479167,45.58200908,0,166.5,96,20.33125,26.0337122,0,83.9,96,96
MISM,3/24/12,70.54791667,94.97607453,0,419,96,32.51875,45.67036886,0,225.6,96,9.796875,13.59132427,0,65.5,96,96
MISM,3/25/12,44.9625,58.45678431,0,156.1,96,19.76979167,26.05138291,0,69.4,96,12.92083333,17.11419796,0,46.9,96,96
MISM,3/26/12,38.109375,50.03494585,0,139.3,96,17.04270833,22.39630019,0,61.4,96,15.60104167,20.53218523,0,58.1,96,96
MISM,3/27/12,65.60833333,92.68592883,0,295.1,96,30.81041667,44.07537677,0,145,96,18.01145833,25.83275306,0,85.8,96,96
MISM,3/28/12,57.11979167,83.62854665,0,298.9,96,24.8625,38.47416153,0,145.4,96,13.18958333,20.7905924,0,82.1,96,96
MISM,3/29/12,49.33854167,71.83858129,0,248.7,96,21.97291667,32.40095021,0,115.7,96,10.14375,14.9653411,0,53.5,96,96
MISM,3/30/12,29.36354167,41.53913847,0,122.9,96,13.86979167,19.54998517,0,58.6,96,4.011458333,5.622939291,0,16.2,96,96
MISM,3/31/12,39.23854167,57.82605563,0,183.2,96,17.61458333,26.53001073,0,87.1,96,4.469791667,6.746150868,0,22.2,96,96
MISM,4/1/12,30.52395833,45.55037869,0,146.1,96,11.39375,17.11282568,0,57.2,96,2.784375,4.179028548,0,14,96,96
MISM,4/2/12,25.453125,34.86086617,0,92.6,96,7.321875,9.613468656,0,24.4,96,1.740625,2.271729141,0,5.8,96,96
MISM,4/3/12,28.07604167,42.11213788,0,129.4,96,10.39791667,16.69795436,0,62.5,96,2.536458333,4.100555028,0,15.2,96,96
MISM,4/4/12,21.62291667,30.72952799,0,83.7,96,5.932291667,8.018393261,0,21.8,96,1.526041667,2.062356587,0,5.6,96,96
MISM,4/5/12,19.703125,28.63404839,0,77.6,96,5.541666667,7.72950147,0,23.1,96,1.494791667,2.078732903,0,6.2,96,96
MISM,4/6/12,19.575,29.63445363,0,87.1,96,6.829166667,10.60544961,0,34.5,96,1.925,2.996559431,0,9.9,96,96
MISM,4/7/12,17.575,26.31218249,0,72.5,96,4.788541667,6.82435067,0,18.5,96,1.325,1.889639342,0,5.2,96,96
MISM,4/8/12,16.21979167,24.78612778,0,69.4,96,4.413541667,6.408310719,0,17.7,96,1.23125,1.78951993,0,5,96,96
MISM,4/9/12,14.803125,23.18281783,0,65.3,96,3.983333333,5.976016393,0,16.4,96,1.108333333,1.656798858,0,4.6,96,96
MISM,4/10/12,13.50729167,21.44278185,0,61.2,96,3.760416667,5.660527764,0,15.5,96,1.063541667,1.597703601,0,4.4,96,96
MISM,4/11/12,13.82604167,22.51955989,0,69.5,96,5.525,9.637306896,0,42.9,96,1.559375,2.697662853,0,12,96,96
MISM,4/12/12,9.328125,16.12960471,0,50.7,96,3.909375,7.02431983,0,22.3,96,1.175,2.081649144,0,6.7,96,96
MISM,4/13/12,7.547916667,12.97768919,0,39.6,96,3.071875,5.481542294,0,17.9,96,0.989583333,1.753821642,0,5.6,96,96
MISM,4/14/12,7.89375,13.62962572,0,40.8,96,2.33125,3.823949804,0,10.8,96,1.416666667,2.315879584,0,6.4,96,96
MISM,4/15/12,7.40625,13.03732143,0,38.8,96,2.383333333,3.94199166,0,11.2,96,1.3125,2.175618484,0,6.1,96,96
MISM,4/16/12,7.226041667,13.7296931,0,44.1,96,3.255208333,6.454192759,0,22.9,96,1.683333333,3.301217213,0,11.7,96,96
MISM,4/17/12,6.859375,13.36567936,0,45.5,96,3.463541667,6.81181821,0,22.4,96,2.290625,4.434863746,0,14.4,96,96
MISM,4/18/12,6.564583333,13.15504289,0,45.1,96,3.902083333,7.922386392,0,27.6,96,2.34375,4.721302508,0,16.4,96,96
MISM,4/19/12,3.672916667,7.45373773,0,27,96,2.113541667,4.465154439,0,16.9,96,1.184375,2.506258613,0,9.5,96,96
MISM,4/20/12,2.991666667,5.855517716,0,19.3,96,1.192708333,2.313313631,0,8,96,0.490625,0.919390888,0,3.2,96,96
MISM,4/21/12,2.915625,5.837849787,0,19.4,96,1.105208333,2.098037669,0,6.6,96,0.434375,0.825237207,0,2.6,96,96
MISM,4/22/12,1.823958333,3.774840388,0,14,96,0.734375,1.563587516,0,7.6,96,0.198958333,0.415361553,0,2,96,96
MISM,4/23/12,0.776041667,1.770325263,0,6.1,96,0.267708333,0.565591408,0,2,96,0.066666667,0.134294779,0,0.5,96,96
MISM,4/24/12,1.504166667,3.384015574,0,13.1,96,0.853125,2.095305687,0,10.2,96,0.192708333,0.480185226,0,2.4,96,96
MISM,4/25/12,0.428125,0.966132074,0,3.4,96,0.1625,0.357844424,0,1.2,96,0.044791667,0.091616813,0,0.3,96,96
MISM,4/26/12,0.673958333,1.539121061,0,5.1,96,0.248958333,0.546759794,0,1.8,96,0.065625,0.124670619,0,0.5,96,96
MISM,4/27/12,0.419791667,1.020590107,0,4.1,96,0.247916667,0.586331892,0,2.4,96,0.048958333,0.134551725,0,0.6,96,96
MISM,4/28/12,0.391666667,0.917509979,0,3.1,96,0.1875,0.437757443,0,1.6,96,0.055208333,0.108453038,0,0.4,96,96
MISM,4/29/12,0.234375,0.573048749,0,2.6,96,0.136458333,0.321876011,0,1.3,96,0.023958333,0.06281936,0,0.2,96,96
MISM,4/30/12,0.1875,0.504975247,0,2,96,0.10625,0.276752787,0,1.2,96,0.044791667,0.122147272,0,0.5,96,96
MISM,5/1/12,0.146875,0.349722634,0,1,96,0.052083333,0.12137733,0,0.5,96,0.029166667,0.066358939,0,0.2,96,96
MISM,5/2/12,0.026041667,0.116297976,0,0.8,96,0.044791667,0.106494172,0,0.4,96,0.05625,0.120361298,0,0.5,96,96
MISM,5/3/12,0.083333333,0.259824502,0,1,96,0.017708333,0.054279572,0,0.2,96,0.03125,0.08499226,0,0.3,96,96
MISM,5/4/12,0,0,0,0,96,0.017708333,0.052304356,0,0.2,96,0.014583333,0.050218819,0,0.2,96,96
MISM,5/5/12,0.001041667,0.010206207,0,0.1,96,0.001041667,0.010206207,0,0.1,96,0.00625,0.024333213,0,0.1,96,96
MISM,5/6/12,0,0,0,0,96,0.007291667,0.02613645,0,0.1,96,0.013541667,0.037331493,0,0.2,96,96
MISM,5/7/12,0,0,0,0,96,0.009375,0.032696773,0,0.2,96,0.005208333,0.022336148,0,0.1,96,96
MISM,5/8/12,0,0,0,0,96,0,0,0,0,96,0.010416667,0.030708019,0,0.1,96,96
MISM,5/9/12,0,0,0,0,96,0,0,0,0,96,0.010416667,0.030708019,0,0.1,96,96
MISM,5/10/12,0,0,0,0,96,0,0,0,0,96,0.005208333,0.022336148,0,0.1,96,96
MISM,5/11/12,0,0,0,0,96,0.004166667,0.024779731,0,0.2,96,0.008333333,0.027783625,0,0.1,96,96
MISM,5/12/12,0,0,0,0,96,0,0,0,0,96,0.013541667,0.037331493,0,0.2,96,96
MISM,5/13/12,0,0,0,0,96,0,0,0,0,96,0.010416667,0.033963345,0,0.2,96,96
MISM,5/14/12,0,0,0,0,96,0.001041667,0.010206207,0,0.1,96,0.004166667,0.020087528,0,0.1,96,96
MISM,5/15/12,0,0,0,0,96,0,0,0,0,96,0.009375,0.035771571,0,0.2,96,96
MISM,5/16/12,0,0,0,0,96,0,0,0,0,96,0.002083333,0.014357589,0,0.1,96,96
MISM,5/17/12,0,0,0,0,96,0,0,0,0,96,0.004166667,0.020087528,0,0.1,96,96
MISM,5/18/12,0,0,0,0,96,0,0,0,0,96,0.001041667,0.010206207,0,0.1,96,96
MISM,5/19/12,0,0,0,0,96,0,0,0,0,96,0.005208333,0.022336148,0,0.1,96,96
MISM,5/20/12,0,0,0,0,96,0,0,0,0,96,0.005208333,0.022336148,0,0.1,96,96
MISM,5/21/12,0,0,0,0,96,0,0,0,0,96,0.001041667,0.010206207,0,0.1,96,96
MISM,5/22/12,0,0,0,0,96,0,0,0,0,96,0.007291667,0.02613645,0,0.1,96,96
MISM,5/23/12,0,0,0,0,96,0,0,0,0,96,0.004166667,0.024779731,0,0.2,96,96
MISM,5/24/12,0,0,0,0,96,0,0,0,0,96,0.004166667,0.020087528,0,0.1,96,96
MISM,5/25/12,0,0,0,0,96,0,0,0,0,96,0.003125,0.017490599,0,0.1,96,96
MISM,5/26/12,0,0,0,0,96,0,0,0,0,96,0.002083333,0.014357589,0,0.1,96,96
MISM,5/27/12,0,0,0,0,96,0,0,0,0,96,0.004166667,0.020087528,0,0.1,96,96
MISM,5/28/12,0,0,0,0,96,0,0,0,0,96,0.002083333,0.014357589,0,0.1,96,96
MISM,5/29/12,0,0,0,0,96,0,0,0,0,96,0,0,0,0,96,96
MISM,5/30/12,0,0,0,0,96,0,0,0,0,96,0,0,0,0,96,96
MISM,5/31/12,0,0,0,0,96,0,0,0,0,96,0.011458333,0.035153174,0,0.2,96,96
MISM,6/1/12,0,0,0,0,96,0,0,0,0,96,0.005208333,0.022336148,0,0.1,96,96
MISM,6/2/12,0,0,0,0,96,0,0,0,0,96,0,0,0,0,96,96
MISM,6/3/12,0,0,0,0,96,0,0,0,0,96,0,0,0,0,96,96
MISM,6/4/12,0,0,0,0,96,0,0,0,0,96,0.005208333,0.022336148,0,0.1,96,96
MISM,6/5/12,0,0,0,0,96,0,0,0,0,96,0.003125,0.017490599,0,0.1,96,96
MISM,6/6/12,0,0,0,0,96,0,0,0,0,96,0.002083333,0.014357589,0,0.1,96,96
MISM,6/7/12,0,0,0,0,96,0,0,0,0,96,0.002083333,0.014357589,0,0.1,96,96
MISM,6/8/12,0,0,0,0,96,0,0,0,0,96,0.002083333,0.014357589,0,0.1,96,96
MISM,6/9/12,0,0,0,0,96,0,0,0,0,96,0.010416667,0.033963345,0,0.2,96,96
MISM,6/10/12,0,0,0,0,96,0,0,0,0,96,0.001041667,0.010206207,0,0.1,96,96
MISM,6/11/12,0,0,0,0,96,0,0,0,0,96,0.009375,0.032696773,0,0.2,96,96
MISM,6/12/12,0,0,0,0,96,0,0,0,0,96,0.002083333,0.014357589,0,0.1,96,96
MISM,6/13/12,0,0,0,0,96,0.002083333,0.014357589,0,0.1,96,0.007291667,0.033229003,0,0.2,96,96
MISM,6/14/12,0,0,0,0,96,0.003125,0.017490599,0,0.1,96,0.011458333,0.038029882,0,0.2,96,96
MISM,6/15/12,0,0,0,0,96,0.002083333,0.014357589,0,0.1,96,0.01875,0.044277831,0,0.2,96,96
MISM,6/16/12,0,0,0,0,96,0,0,0,0,96,0,0,0,0,96,96
MISM,6/17/12,0,0,0,0,96,0,0,0,0,96,0.011458333,0.032019046,0,0.1,96,96
MISM,6/18/12,0,0,0,0,96,0,0,0,0,96,0.004166667,0.020087528,0,0.1,96,96
MISM,6/19/12,0,0,0,0,96,0,0,0,0,96,0.003125,0.017490599,0,0.1,96,96
MISM,6/20/12,0,0,0,0,96,0,0,0,0,96,0.00625,0.028330753,0,0.2,96,96
MISM,6/21/12,0,0,0,0,96,0,0,0,0,96,0.002083333,0.014357589,0,0.1,96,96
MISM,6/22/12,0,0,0,0,96,0,0,0,0,96,0.001041667,0.010206207,0,0.1,96,96
MISM,6/23/12,0,0,0,0,96,0,0,0,0,96,0.00625,0.024333213,0,0.1,96,96
MISM,6/24/12,0,0,0,0,96,0,0,0,0,96,0.00625,0.024333213,0,0.1,96,96
MISM,6/25/12,0,0,0,0,96,0.002083333,0.014357589,0,0.1,96,0.004166667,0.024779731,0,0.2,96,96
MISM,6/26/12,0,0,0,0,96,0.001041667,0.010206207,0,0.1,96,0.010416667,0.036932846,0,0.2,96,96
MISM,6/27/12,0,0,0,0,96,0,0,0,0,96,0.0125,0.041675438,0,0.2,96,96
MISM,6/28/12,0,0,0,0,96,0,0,0,0,96,0.001041667,0.010206207,0,0.1,96,96
MISM,6/29/12,0,0,0,0,96,0,0,0,0,96,0.002083333,0.014357589,0,0.1,96,96
MISM,6/30/12,0,0,0,0,96,0,0,0,0,96,0.001041667,0.010206207,0,0.1,96,96
MISM,7/1/12,0,0,0,0,96,0,0,0,0,96,0.001041667,0.010206207,0,0.1,96,96
MISM,7/2/12,0,0,0,0,96,0,0,0,0,96,0.002083333,0.014357589,0,0.1,96,96
MISM,7/3/12,0,0,0,0,96,0,0,0,0,96,0.00625,0.028330753,0,0.2,96,96
MISM,7/4/12,0,0,0,0,96,0,0,0,0,96,0.004166667,0.020087528,0,0.1,96,96
MISM,7/5/12,0,0,0,0,96,0,0,0,0,96,0,0,0,0,96,96
MISM,7/6/12,0,0,0,0,96,0,0,0,0,96,0,0,0,0,96,96
MISM,7/7/12,0,0,0,0,96,0,0,0,0,96,0.00625,0.028330753,0,0.2,96,96
MISM,7/8/12,0,0,0,0,96,0,0,0,0,96,0.00625,0.024333213,0,0.1,96,96
MISM,7/9/12,0,0,0,0,96,0.002083333,0.014357589,0,0.1,96,0,0,0,0,96,96
MISM,7/10/12,0,0,0,0,96,0.001041667,0.010206207,0,0.1,96,0.014583333,0.045835327,0,0.2,96,96
MISM,7/11/12,0,0,0,0,96,0,0,0,0,96,0.009375,0.029301069,0,0.1,96,96
MISM,7/12/12,0,0,0,0,96,0,0,0,0,96,0.004166667,0.020087528,0,0.1,96,96
MISM,7/13/12,0,0,0,0,96,0,0,0,0,96,0.001041667,0.010206207,0,0.1,96,96
MISM,7/14/12,0,0,0,0,96,0,0,0,0,96,0.003125,0.017490599,0,0.1,96,96
MISM,7/15/12,0,0,0,0,96,0,0,0,0,96,0,0,0,0,96,96
MISM,7/16/12,0,0,0,0,96,0,0,0,0,96,0.003125,0.017490599,0,0.1,96,96
MISM,7/17/12,0,0,0,0,96,0,0,0,0,96,0.003125,0.017490599,0,0.1,96,96
MISM,7/18/12,0,0,0,0,96,0,0,0,0,96,0.004166667,0.020087528,0,0.1,96,96
MISM,7/19/12,0,0,0,0,96,0,0,0,0,96,0.001041667,0.010206207,0,0.1,96,96
MISM,7/20/12,0,0,0,0,96,0,0,0,0,96,0.003125,0.017490599,0,0.1,96,96
MISM,7/21/12,0,0,0,0,96,0,0,0,0,96,0.004166667,0.024779731,0,0.2,96,96
MISM,7/22/12,0,0,0,0,96,0,0,0,0,96,0.001041667,0.010206207,0,0.1,96,96
MISM,7/23/12,0,0,0,0,96,0,0,0,0,96,0.002083333,0.014357589,0,0.1,96,96
MISM,7/24/12,0,0,0,0,96,0,0,0,0,96,0,0,0,0,96,96
MISM,7/25/12,0,0,0,0,96,0.001041667,0.010206207,0,0.1,96,0.005208333,0.026635124,0,0.2,96,96
MISM,7/26/12,0,0,0,0,96,0,0,0,0,96,0.001041667,0.010206207,0,0.1,96,96
MISM,7/27/12,0,0,0,0,96,0,0,0,0,96,0.009375,0.029301069,0,0.1,96,96
MISM,7/28/12,0,0,0,0,96,0,0,0,0,96,0.00625,0.024333213,0,0.1,96,96
MISM,7/29/12,0,0,0,0,96,0,0,0,0,96,0.002083333,0.014357589,0,0.1,96,96
MISM,7/30/12,0,0,0,0,96,0,0,0,0,96,0.003125,0.017490599,0,0.1,96,96
MISM,7/31/12,0,0,0,0,96,0.003125,0.017490599,0,0.1,96,0.001041667,0.010206207,0,0.1,96,96
MISM,8/1/12,0,0,0,0,96,0,0,0,0,96,0.003125,0.017490599,0,0.1,96,96
MISM,8/2/12,0,0,0,0,96,0.003125,0.017490599,0,0.1,96,0,0,0,0,96,96
MISM,8/3/12,0,0,0,0,96,0.007291667,0.029893818,0,0.2,96,0.014583333,0.038331426,0,0.2,96,96
MISM,8/4/12,0,0,0,0,96,0,0,0,0,96,0.004166667,0.020087528,0,0.1,96,96
MISM,8/5/12,0,0,0,0,96,0.020833333,0.061416039,0,0.3,96,0.013541667,0.045002437,0,0.2,96,96
MISM,8/6/12,0,0,0,0,96,0.00625,0.028330753,0,0.2,96,0.002083333,0.014357589,0,0.1,96,96
MISM,8/7/12,0.073958333,0.243329879,0,1,96,0.080208333,0.218424884,0,0.9,96,0.01875,0.050912722,0,0.2,96,96
MISM,8/8/12,0.014583333,0.06321087,0,0.4,96,0.005208333,0.022336148,0,0.1,96,0.004166667,0.020087528,0,0.1,96,96
MISM,8/9/12,0.030208333,0.125756483,0,0.7,96,0.028125,0.081696647,0,0.4,96,0.010416667,0.030708019,0,0.1,96,96
MISM,8/10/12,0,0,0,0,96,0.019791667,0.080288679,0,0.4,96,0.010416667,0.033963345,0,0.2,96,96
MISM,8/11/12,0.04375,0.165950214,0,0.9,96,0.044791667,0.129671481,0,0.6,96,0.017708333,0.052304356,0,0.2,96,96
MISM,8/12/12,0.141666667,0.343255825,0,1.1,96,0.129166667,0.304325541,0,1.1,96,0.041666667,0.084188594,0,0.3,96,96
MISM,8/13/12,0.232291667,0.549735782,0,2.1,96,0.192708333,0.444911533,0,1.7,96,0.063541667,0.150871009,0,0.6,96,96
MISM,8/14/12,0.119791667,0.34962229,0,1.4,96,0.096875,0.232357766,0,0.8,96,0.039583333,0.092314299,0,0.4,96,96
MISM,8/15/12,0.4875,1.140752291,0,4.1,96,0.348958333,0.701726411,0,2.4,96,0.105208333,0.21392069,0,0.8,96,96
MISM,8/16/12,0.609375,1.45240839,0,7.5,96,0.620833333,1.319482886,0,5.8,96,0.195833333,0.428931762,0,1.8,96,96
MISM,8/17/12,0.54375,1.3149995,0,5.1,96,0.203125,0.491924925,0,2,96,0.06875,0.149604742,0,0.6,96,96
MISM,8/18/12,0.796875,1.836727818,0,6.1,96,0.458333333,1.002068037,0,3.7,96,0.14375,0.305325538,0,1.1,96,96
MISM,8/19/12,0.691666667,1.468021703,0,5.1,96,0.292708333,0.57623913,0,1.7,96,0.267708333,0.534985448,0,1.6,96,96
MISM,8/20/12,1.239583333,2.661636978,0,9.2,96,0.464583333,0.953219383,0,3.2,96,0.448958333,0.907627885,0,3.2,96,96
MISM,8/21/12,1.555208333,3.260121722,0,11.2,96,0.564583333,1.155123978,0,4.5,96,0.464583333,0.950786839,0,3.7,96,96
MISM,8/22/12,0.848958333,1.685791695,0,6.1,96,0.320833333,0.635927283,0,2.1,96,0.066666667,0.135076327,0,0.4,96,96
MISM,8/23/12,3.096875,6.390296149,0,23.1,96,1.31875,2.865155916,0,10.8,96,0.2875,0.601795559,0,2.4,96,96
MISM,8/24/12,2.115625,4.364650541,0,16.1,96,0.769791667,1.656065076,0,7,96,0.564583333,1.274113039,0,5.2,96,96
MISM,8/25/12,2.261458333,4.531303282,0,16.1,96,0.914583333,1.910138004,0,7.3,96,0.285416667,0.55667796,0,2.1,96,96
MISM,8/26/12,4.720833333,8.700150231,0,28.3,96,1.861458333,3.344071574,0,10.5,96,0.528125,0.924485988,0,2.9,96,96
MISM,8/27/12,3.147916667,5.70633958,0,17.9,96,1.234375,2.250559141,0,7.5,96,2.044791667,3.738332581,0,12.8,96,96
MISM,8/28/12,3.761458333,6.893954175,0,21.4,96,1.51875,2.881166156,0,9.2,96,2.394791667,4.530234566,0,14.8,96,96
MISM,8/29/12,7.545833333,14.63343624,0,61,96,4.025,8.62195484,0,40.8,96,3.278125,6.954728844,0,32.8,96,96
MISM,8/30/12,14.65625,26.16963211,0,80,96,8.44375,14.80420859,0,46.1,96,5.838541667,10.24038825,0,32.2,96,96
MISM,8/31/12,14.71770833,25.52966075,0,88.1,96,6.463541667,11.45126166,0,43.6,96,4.434375,7.820012493,0,29.5,96,96
MISM,9/1/12,11.9,19.95448505,0,60.2,96,5.278125,8.867969602,0,26.9,96,3.505208333,5.868566933,0,17.8,96,96
MISM,9/2/12,15.86666667,25.13006028,0,68,96,5.010416667,7.720819143,0,27.2,96,3.211458333,4.959538811,0,17.8,96,96
MISM,9/3/12,16.11458333,25.09368962,0,71.6,96,4.501041667,6.692171307,0,19.5,96,2.830208333,4.201556599,0,12.2,96,96
MISM,9/4/12,18.82395833,31.23448413,0,96.7,96,8.294791667,14.08141268,0,43.7,96,3.966666667,6.733586933,0,21,96,96
MISM,9/5/12,24.66458333,39.21349386,0,120,96,11.99895833,18.83632266,0,58.1,96,5.608333333,8.777838922,0,27.2,96,96
MISM,9/6/12,26.30625,40.78723694,0,131.4,96,10.33541667,16.53977012,0,57.2,96,5.095833333,8.180257578,0,28.4,96,96
MISM,9/7/12,26.5875,40.20055577,0,116.4,96,10.725,16.1563284,0,47.1,96,5.273958333,7.942931247,0,23.2,96,96
MISM,9/8/12,29.19270833,43.67006742,0,127.5,96,12.13541667,18.01430998,0,52.9,96,5.844791667,8.67915676,0,25.6,96,96
MISM,9/9/12,25.46666667,35.68673251,0,95,96,6.969791667,9.520030073,0,25.9,96,3.248958333,4.421859451,0,12.1,96,96
MISM,9/10/12,30.54583333,45.48594211,0,130.3,96,13.08333333,19.73332563,0,56.5,96,6.477083333,9.676650999,0,28.1,96,96
MISM,9/11/12,30.08645833,44.77935525,0,141.2,96,12.65416667,19.04047167,0,60.7,96,6.491666667,9.800565684,0,32.1,96,96
MISM,9/12/12,33.43333333,48.31407917,0,136.4,96,14.58333333,21.30627615,0,59.8,96,5.861458333,8.571843378,0,24.2,96,96
MISM,9/13/12,41.70729167,60.66876634,0,254.5,96,14.67083333,23.46845101,0,117.7,96,4.666666667,7.531039862,0,39.1,96,96
MISM,9/14/12,40.85520833,60.75736883,0,290,96,13.01666667,24.26379875,0,139.7,96,4.029166667,7.596937287,0,47.7,96,96
MISM,9/15/12,58.08125,78.95235114,0,282.1,96,26.421875,36.75474678,0,142.7,96,8.6,12.00120169,0,48.3,96,96
MISM,9/16/12,57.84791667,89.30133845,0,328.7,96,22.63645833,41.56037617,0,162.9,96,6.927083333,12.89813107,0,51.6,96,96
MISM,9/17/12,73.696875,106.2569839,0,360.4,96,33.58645833,50.12660943,0,178.2,96,10.55,15.76231348,0,55.6,96,96
MISM,9/18/12,88.63958333,125.3689867,0,400.9,96,41.31979167,60.95410114,0,207.2,96,12.36458333,18.07455309,0,60.9,96,96
MISM,9/19/12,92.48541667,143.3272229,0,423.3,96,43.30520833,75.76190734,0,222,96,11.85833333,20.79573674,0,63.1,96,96
MISM,9/20/12,95.39895833,145.1296556,0,417.9,96,44.10416667,74.59381365,0,210.4,96,12.959375,22.14016868,0,65.2,96,96
MISM,9/21/12,97.02083333,127.5476942,0,384.8,96,46.521875,63.14959716,0,194.7,96,14.19583333,19.1243351,0,56.8,96,96
MISM,9/22/12,108.9916667,151.0962465,0,484.4,96,52.05729167,78.05841503,0,241.7,96,15.33645833,23.01145307,0,78.4,96,96